Time,TemperatureF,DewpointF,PressureIn,WindDirection,WindDirectionDegrees,WindSpeedMPH,WindSpeedGustMPH,Humidity,HourlyPrecipIn,Conditions,Clouds,dailyrainin,SoftwareType,DateUTC
2013-06-07 00:01:00,58.2,46.0,30.03,North,0,0.0,0.0,63,0.00,,,0.00,Rainwise IP-100,2013-06-07 07:01:00,
2013-06-07 00:06:00,58.0,46.0,30.03,North,0,0.0,0.0,64,0.00,,,0.00,Rainwise IP-100,2013-06-07 07:06:00,
2013-06-07 00:11:00,57.9,47.0,30.03,North,0,0.0,0.0,65,0.00,,,0.00,Rainwise IP-100,2013-06-07 07:11:00,
2013-06-07 00:16:00,57.8,47.0,30.03,North,0,0.0,0.0,66,0.00,,,0.00,Rainwise IP-100,2013-06-07 07:16:00,
2013-06-07 00:21:00,57.6,47.5,30.03,North,0,0.0,0.0,68,0.00,,,0.00,Rainwise IP-100,2013-06-07 07:21:00,
2013-06-07 00:26:00,57.5,47.5,30.03,North,0,0.0,0.0,68,0.00,,,0.00,Rainwise IP-100,2013-06-07 07:26:00,
2013-06-07 00:31:00,57.5,47.5,30.03,North,0,0.0,0.0,69,0.00,,,0.00,Rainwise IP-100,2013-06-07 07:31:00,
2013-06-07 00:36:00,57.5,48.0,30.03,North,0,0.0,0.0,70,0.00,,,0.00,Rainwise IP-100,2013-06-07 07:36:00,
2013-06-07 00:41:00,57.4,48.0,30.03,North,0,0.0,0.0,71,0.00,,,0.00,Rainwise IP-100,2013-06-07 07:41:00,
2013-06-07 00:46:00,57.4,49.0,30.03,North,0,0.0,0.0,72,0.00,,,0.00,Rainwise IP-100,2013-06-07 07:46:00,
2013-06-07 00:51:00,57.3,49.0,30.03,North,0,0.0,0.0,72,0.00,,,0.00,Rainwise IP-100,2013-06-07 07:51:00,
2013-06-07 00:56:00,57.3,49.0,30.03,North,0,0.0,0.0,72,0.00,,,0.00,Rainwise IP-100,2013-06-07 07:56:00,
2013-06-07 01:01:00,57.2,48.0,30.02,North,0,0.0,0.0,72,0.00,,,0.00,Rainwise IP-100,2013-06-07 08:01:00,
2013-06-07 01:06:00,57.2,48.0,30.02,North,0,0.0,0.0,73,0.00,,,0.00,Rainwise IP-100,2013-06-07 08:06:00,
2013-06-07 01:11:00,57.2,48.0,30.02,North,0,0.0,0.0,73,0.00,,,0.00,Rainwise IP-100,2013-06-07 08:11:00,
2013-06-07 01:16:00,57.1,48.0,30.03,North,0,0.0,0.0,73,0.00,,,0.00,Rainwise IP-100,2013-06-07 08:16:00,
2013-06-07 01:21:00,57.0,48.0,30.03,North,0,0.0,0.0,73,0.00,,,0.00,Rainwise IP-100,2013-06-07 08:21:00,
2013-06-07 01:26:00,56.9,48.0,30.04,North,0,0.0,0.0,72,0.00,,,0.00,Rainwise IP-100,2013-06-07 08:26:00,
2013-06-07 01:31:00,56.7,47.5,30.04,North,0,0.0,0.0,72,0.00,,,0.00,Rainwise IP-100,2013-06-07 08:31:00,
2013-06-07 01:36:00,56.6,47.5,30.04,North,0,0.0,0.0,72,0.00,,,0.00,Rainwise IP-100,2013-06-07 08:36:00,
2013-06-07 01:41:00,56.4,47.5,30.04,North,0,0.0,0.0,72,0.00,,,0.00,Rainwise IP-100,2013-06-07 08:41:00,
2013-06-07 01:46:00,56.3,47.5,30.04,North,0,0.0,0.0,72,0.00,,,0.00,Rainwise IP-100,2013-06-07 08:46:00,
2013-06-07 01:51:00,56.3,47.5,30.03,North,0,0.0,0.0,71,0.00,,,0.00,Rainwise IP-100,2013-06-07 08:51:00,
2013-06-07 01:56:00,56.3,47.5,30.03,North,0,0.0,0.0,72,0.00,,,0.00,Rainwise IP-100,2013-06-07 08:56:00,
2013-06-07 02:01:00,56.2,47.5,30.04,North,0,0.0,0.0,73,0.00,,,0.00,Rainwise IP-100,2013-06-07 09:01:00,
2013-06-07 02:06:00,56.1,47.5,30.04,North,0,0.0,0.0,74,0.00,,,0.00,Rainwise IP-100,2013-06-07 09:06:00,
2013-06-07 02:11:00,56.0,48.0,30.04,North,0,0.0,0.0,75,0.00,,,0.00,Rainwise IP-100,2013-06-07 09:11:00,
2013-06-07 02:16:00,56.0,48.0,30.04,North,0,0.0,0.0,76,0.00,,,0.00,Rainwise IP-100,2013-06-07 09:16:00,
2013-06-07 02:21:00,56.0,48.0,30.04,North,0,0.0,0.0,76,0.00,,,0.00,Rainwise IP-100,2013-06-07 09:21:00,
2013-06-07 02:26:00,56.1,48.0,30.05,North,0,0.0,0.0,76,0.00,,,0.00,Rainwise IP-100,2013-06-07 09:26:00,
2013-06-07 02:31:00,56.2,48.0,30.03,WSW,247,1.6,0.0,76,0.00,,,0.00,Rainwise IP-100,2013-06-07 09:31:00,
2013-06-07 02:36:00,56.4,49.0,30.03,WSW,247,0.0,1.6,75,0.00,,,0.00,Rainwise IP-100,2013-06-07 09:36:00,
2013-06-07 02:41:00,56.6,48.0,30.04,WSW,247,0.0,0.0,74,0.00,,,0.00,Rainwise IP-100,2013-06-07 09:41:00,
2013-06-07 02:46:00,56.5,49.0,30.04,SW,225,0.0,1.2,75,0.00,,,0.00,Rainwise IP-100,2013-06-07 09:46:00,
2013-06-07 02:51:00,56.5,49.0,30.05,SW,225,0.0,0.0,75,0.00,,,0.00,Rainwise IP-100,2013-06-07 09:51:00,
2013-06-07 02:56:00,56.3,49.0,30.05,SW,225,0.0,0.0,76,0.00,,,0.00,Rainwise IP-100,2013-06-07 09:56:00,
2013-06-07 03:01:00,56.2,49.0,30.05,SW,225,0.0,0.0,77,0.00,,,0.00,Rainwise IP-100,2013-06-07 10:01:00,
2013-06-07 03:06:00,56.0,50.0,30.05,SW,225,0.0,0.0,79,0.00,,,0.00,Rainwise IP-100,2013-06-07 10:06:00,
2013-06-07 03:11:00,55.9,50.0,30.05,SW,225,0.0,0.0,80,0.00,,,0.00,Rainwise IP-100,2013-06-07 10:11:00,
2013-06-07 03:16:00,55.9,50.0,30.04,SW,225,0.0,0.0,81,0.00,,,0.00,Rainwise IP-100,2013-06-07 10:16:00,
2013-06-07 03:21:00,56.0,50.0,30.05,SW,225,0.0,0.0,81,0.00,,,0.00,Rainwise IP-100,2013-06-07 10:21:00,
2013-06-07 03:26:00,56.1,50.0,30.05,SW,225,0.0,0.0,81,0.00,,,0.00,Rainwise IP-100,2013-06-07 10:26:00,
2013-06-07 03:31:00,56.2,50.0,30.06,SW,225,0.0,0.0,81,0.00,,,0.00,Rainwise IP-100,2013-06-07 10:31:00,
2013-06-07 03:36:00,56.3,50.5,30.05,SW,225,0.0,0.0,80,0.00,,,0.00,Rainwise IP-100,2013-06-07 10:36:00,
2013-06-07 03:41:00,56.3,50.5,30.05,SW,225,0.0,0.0,80,0.00,,,0.00,Rainwise IP-100,2013-06-07 10:41:00,
2013-06-07 03:46:00,56.3,50.5,30.06,SW,225,0.0,0.0,80,0.00,,,0.00,Rainwise IP-100,2013-06-07 10:46:00,
2013-06-07 03:51:00,56.4,50.5,30.05,SW,225,0.0,0.0,80,0.00,,,0.00,Rainwise IP-100,2013-06-07 10:51:00,
2013-06-07 03:56:00,56.3,50.5,30.05,SW,225,0.0,0.0,81,0.00,,,0.00,Rainwise IP-100,2013-06-07 10:56:00,
2013-06-07 04:01:00,56.3,50.5,30.06,SW,225,0.0,0.0,80,0.00,,,0.00,Rainwise IP-100,2013-06-07 11:01:00,
2013-06-07 04:06:00,56.3,50.5,30.06,SW,225,0.0,0.0,80,0.00,,,0.00,Rainwise IP-100,2013-06-07 11:06:00,
2013-06-07 04:11:00,56.4,50.5,30.06,SSW,202,0.0,2.1,80,0.00,,,0.00,Rainwise IP-100,2013-06-07 11:11:00,
2013-06-07 04:16:00,56.5,50.5,30.05,SSW,202,1.2,2.6,80,0.00,,,0.00,Rainwise IP-100,2013-06-07 11:16:00,
2013-06-07 04:21:00,56.6,50.5,30.05,SSW,202,0.0,1.6,80,0.00,,,0.00,Rainwise IP-100,2013-06-07 11:21:00,
2013-06-07 04:26:00,56.6,50.5,30.05,SSW,202,0.0,0.0,80,0.00,,,0.00,Rainwise IP-100,2013-06-07 11:26:00,
2013-06-07 04:31:00,56.6,50.0,30.05,SW,225,1.4,1.6,79,0.00,,,0.00,Rainwise IP-100,2013-06-07 11:31:00,
2013-06-07 04:36:00,56.5,50.0,30.06,SW,225,0.0,1.4,79,0.00,,,0.00,Rainwise IP-100,2013-06-07 11:36:00,
2013-06-07 04:41:00,56.4,50.0,30.06,SW,225,0.0,0.0,79,0.00,,,0.00,Rainwise IP-100,2013-06-07 11:41:00,
2013-06-07 04:46:00,56.4,50.5,30.06,SW,225,0.0,0.0,80,0.00,,,0.00,Rainwise IP-100,2013-06-07 11:46:00,
2013-06-07 04:51:00,56.4,50.0,30.06,SW,225,0.0,0.0,79,0.00,,,0.00,Rainwise IP-100,2013-06-07 11:51:00,
2013-06-07 04:56:00,56.3,50.5,30.06,SW,225,0.0,0.0,80,0.00,,,0.00,Rainwise IP-100,2013-06-07 11:56:00,
2013-06-07 05:01:00,56.3,50.5,30.06,SW,225,0.0,0.0,80,0.00,,,0.00,Rainwise IP-100,2013-06-07 12:01:00,
2013-06-07 05:06:00,56.3,50.5,30.06,SW,225,0.0,1.6,80,0.00,,,0.00,Rainwise IP-100,2013-06-07 12:06:00,
2013-06-07 05:11:00,56.5,50.0,30.05,SW,225,0.0,1.9,79,0.00,,,0.00,Rainwise IP-100,2013-06-07 12:11:00,
2013-06-07 05:16:00,56.8,50.5,30.06,WSW,247,0.0,2.1,78,0.00,,,0.00,Rainwise IP-100,2013-06-07 12:16:00,
2013-06-07 05:21:00,56.9,50.5,30.06,WSW,247,0.0,2.6,78,0.00,,,0.00,Rainwise IP-100,2013-06-07 12:21:00,
2013-06-07 05:26:00,56.9,50.0,30.05,SSW,202,1.6,3.7,77,0.00,,,0.00,Rainwise IP-100,2013-06-07 12:26:00,
2013-06-07 05:31:00,56.9,50.0,30.06,SSW,202,0.0,3.3,77,0.00,,,0.00,Rainwise IP-100,2013-06-07 12:31:00,
2013-06-07 05:36:00,56.9,50.0,30.06,WSW,247,0.0,2.3,77,0.00,,,0.00,Rainwise IP-100,2013-06-07 12:36:00,
2013-06-07 05:41:00,56.8,50.0,30.06,WSW,247,0.0,2.8,77,0.00,,,0.00,Rainwise IP-100,2013-06-07 12:41:00,
2013-06-07 05:46:00,56.6,50.0,30.06,WSW,247,0.0,2.8,78,0.00,,,0.00,Rainwise IP-100,2013-06-07 12:46:00,
2013-06-07 05:51:00,56.4,50.0,30.07,WSW,247,1.2,3.7,78,0.00,,,0.00,Rainwise IP-100,2013-06-07 12:51:00,
2013-06-07 05:56:00,56.2,49.0,30.07,WSW,247,0.0,4.2,78,0.00,,,0.00,Rainwise IP-100,2013-06-07 12:56:00,
2013-06-07 06:01:00,56.1,50.0,30.06,SSE,157,0.0,1.9,79,0.00,,,0.00,Rainwise IP-100,2013-06-07 13:01:00,
2013-06-07 06:06:00,56.0,50.0,30.07,SW,225,2.3,3.7,79,0.00,,,0.00,Rainwise IP-100,2013-06-07 13:06:00,
2013-06-07 06:11:00,55.9,50.0,30.07,SSW,202,0.0,5.1,80,0.00,,,0.00,Rainwise IP-100,2013-06-07 13:11:00,
2013-06-07 06:16:00,55.8,50.0,30.07,South,180,2.1,3.5,80,0.00,,,0.00,Rainwise IP-100,2013-06-07 13:16:00,
2013-06-07 06:21:00,55.8,50.0,30.06,SSW,202,0.0,2.8,80,0.00,,,0.00,Rainwise IP-100,2013-06-07 13:21:00,
2013-06-07 06:26:00,55.8,50.0,30.05,SSW,202,2.6,2.6,80,0.00,,,0.00,Rainwise IP-100,2013-06-07 13:26:00,
2013-06-07 06:31:00,55.8,50.0,30.06,SW,225,2.3,2.8,80,0.00,,,0.00,Rainwise IP-100,2013-06-07 13:31:00,
2013-06-07 06:36:00,55.8,50.0,30.07,SSW,202,1.6,4.2,79,0.00,,,0.00,Rainwise IP-100,2013-06-07 13:36:00,
2013-06-07 06:41:00,56.0,50.0,30.07,SW,225,1.2,3.7,79,0.00,,,0.00,Rainwise IP-100,2013-06-07 13:41:00,
2013-06-07 06:46:00,56.1,50.0,30.07,SW,225,0.0,3.5,79,0.00,,,0.00,Rainwise IP-100,2013-06-07 13:46:00,
2013-06-07 06:51:00,56.2,50.0,30.07,South,180,1.2,2.1,79,0.00,,,0.00,Rainwise IP-100,2013-06-07 13:51:00,
2013-06-07 06:56:00,56.2,50.0,30.06,ESE,112,0.0,1.2,79,0.00,,,0.00,Rainwise IP-100,2013-06-07 13:56:00,
2013-06-07 07:01:00,56.3,50.0,30.06,SW,225,0.0,0.0,79,0.00,,,0.00,Rainwise IP-100,2013-06-07 14:01:00,
2013-06-07 07:06:00,56.4,50.0,30.06,SSW,202,2.1,2.8,78,0.00,,,0.00,Rainwise IP-100,2013-06-07 14:06:00,
2013-06-07 07:11:00,56.6,49.0,30.06,WSW,247,1.2,2.8,77,0.00,,,0.00,Rainwise IP-100,2013-06-07 14:11:00,
2013-06-07 07:16:00,56.7,49.0,30.06,South,180,0.0,3.3,75,0.00,,,0.00,Rainwise IP-100,2013-06-07 14:16:00,
2013-06-07 07:21:00,56.7,49.0,30.06,SSW,202,0.0,3.3,75,0.00,,,0.00,Rainwise IP-100,2013-06-07 14:21:00,
2013-06-07 07:26:00,56.8,49.0,30.06,SW,225,3.0,3.3,74,0.00,,,0.00,Rainwise IP-100,2013-06-07 14:26:00,
2013-06-07 07:31:00,56.7,48.0,30.06,SSW,202,2.1,6.1,73,0.00,,,0.00,Rainwise IP-100,2013-06-07 14:31:00,
2013-06-07 07:36:00,56.7,47.5,30.06,WSW,247,0.0,3.7,72,0.00,,,0.00,Rainwise IP-100,2013-06-07 14:36:00,
2013-06-07 07:41:00,56.8,48.0,30.06,WSW,247,2.8,4.7,72,0.00,,,0.00,Rainwise IP-100,2013-06-07 14:41:00,
2013-06-07 07:46:00,56.8,48.0,30.06,WSW,247,0.0,4.4,72,0.00,,,0.00,Rainwise IP-100,2013-06-07 14:46:00,
2013-06-07 07:51:00,56.8,47.5,30.06,SSW,202,1.4,5.1,71,0.00,,,0.00,Rainwise IP-100,2013-06-07 14:51:00,
2013-06-07 07:56:00,57.0,47.5,30.06,SW,225,2.1,4.9,71,0.00,,,0.00,Rainwise IP-100,2013-06-07 14:56:00,
2013-06-07 08:01:00,57.1,47.5,30.07,SW,225,3.0,4.9,70,0.00,,,0.00,Rainwise IP-100,2013-06-07 15:01:00,
2013-06-07 08:06:00,57.2,47.0,30.06,WSW,247,0.0,4.4,69,0.00,,,0.00,Rainwise IP-100,2013-06-07 15:06:00,
2013-06-07 08:11:00,57.4,47.5,30.06,WSW,247,1.9,3.3,69,0.00,,,0.00,Rainwise IP-100,2013-06-07 15:11:00,
2013-06-07 08:16:00,57.6,47.5,30.06,SW,225,1.2,4.0,68,0.00,,,0.00,Rainwise IP-100,2013-06-07 15:16:00,
2013-06-07 08:21:00,57.6,47.5,30.06,WSW,247,3.0,4.7,68,0.00,,,0.00,Rainwise IP-100,2013-06-07 15:21:00,
2013-06-07 08:26:00,57.3,47.5,30.07,WSW,247,2.6,4.2,68,0.00,,,0.00,Rainwise IP-100,2013-06-07 15:26:00,
2013-06-07 08:31:00,57.0,47.0,30.07,WSW,247,2.1,4.9,68,0.00,,,0.00,Rainwise IP-100,2013-06-07 15:31:00,
2013-06-07 08:36:00,56.9,47.0,30.07,SSW,202,0.0,3.7,69,0.00,,,0.00,Rainwise IP-100,2013-06-07 15:36:00,
2013-06-07 08:41:00,57.0,47.0,30.07,SW,225,2.1,3.0,69,0.00,,,0.00,Rainwise IP-100,2013-06-07 15:41:00,
2013-06-07 08:46:00,57.0,47.0,30.06,WSW,247,2.1,3.0,69,0.00,,,0.00,Rainwise IP-100,2013-06-07 15:46:00,
2013-06-07 08:51:00,57.0,47.0,30.06,West,270,0.0,3.7,69,0.00,,,0.00,Rainwise IP-100,2013-06-07 15:51:00,
2013-06-07 08:56:00,57.2,47.0,30.07,SW,225,1.2,4.2,69,0.00,,,0.00,Rainwise IP-100,2013-06-07 15:56:00,
2013-06-07 09:01:00,57.4,47.5,30.06,SSW,202,1.6,5.1,68,0.00,,,0.00,Rainwise IP-100,2013-06-07 16:01:00,
2013-06-07 09:06:00,57.5,47.0,30.07,SW,225,2.3,4.4,67,0.00,,,0.00,Rainwise IP-100,2013-06-07 16:06:00,
2013-06-07 09:11:00,57.7,47.0,30.07,WSW,247,3.3,4.9,66,0.00,,,0.00,Rainwise IP-100,2013-06-07 16:11:00,
2013-06-07 09:16:00,57.7,47.0,30.07,SSW,202,2.3,3.3,66,0.00,,,0.00,Rainwise IP-100,2013-06-07 16:16:00,
2013-06-07 09:21:00,57.9,47.0,30.07,SSW,202,1.2,4.2,66,0.00,,,0.00,Rainwise IP-100,2013-06-07 16:21:00,
2013-06-07 09:26:00,58.1,47.0,30.07,WSW,247,2.6,6.3,65,0.00,,,0.00,Rainwise IP-100,2013-06-07 16:26:00,
2013-06-07 09:31:00,58.3,47.0,30.06,SSW,202,1.4,4.0,65,0.00,,,0.00,Rainwise IP-100,2013-06-07 16:31:00,
2013-06-07 09:36:00,58.6,47.0,30.07,WSW,247,1.9,4.7,64,0.00,,,0.00,Rainwise IP-100,2013-06-07 16:36:00,
2013-06-07 09:41:00,58.7,47.0,30.07,WSW,247,2.3,5.6,63,0.00,,,0.00,Rainwise IP-100,2013-06-07 16:41:00,
2013-06-07 09:46:00,58.6,47.0,30.07,SSW,202,1.6,5.8,63,0.00,,,0.00,Rainwise IP-100,2013-06-07 16:46:00,
2013-06-07 09:51:00,58.7,47.0,30.07,South,180,3.0,5.6,63,0.00,,,0.00,Rainwise IP-100,2013-06-07 16:51:00,
2013-06-07 09:56:00,58.9,47.0,30.07,WSW,247,3.0,6.3,63,0.00,,,0.00,Rainwise IP-100,2013-06-07 16:56:00,
2013-06-07 10:01:00,58.9,47.0,30.07,SW,225,2.6,3.5,63,0.00,,,0.00,Rainwise IP-100,2013-06-07 17:01:00,
2013-06-07 10:06:00,58.9,47.0,30.07,WSW,247,1.9,5.1,63,0.00,,,0.00,Rainwise IP-100,2013-06-07 17:06:00,
2013-06-07 10:11:00,59.3,47.0,30.07,SW,225,1.4,6.3,62,0.00,,,0.00,Rainwise IP-100,2013-06-07 17:11:00,
2013-06-07 10:16:00,59.9,47.0,30.08,SSW,202,2.8,4.9,62,0.00,,,0.00,Rainwise IP-100,2013-06-07 17:16:00,
2013-06-07 10:21:00,60.4,47.0,30.08,SSW,202,1.4,6.3,61,0.00,,,0.00,Rainwise IP-100,2013-06-07 17:21:00,
2013-06-07 10:26:00,60.7,47.0,30.07,SSW,202,1.4,4.4,60,0.00,,,0.00,Rainwise IP-100,2013-06-07 17:26:00,
2013-06-07 10:31:00,61.2,47.0,30.08,WSW,247,1.4,4.0,59,0.00,,,0.00,Rainwise IP-100,2013-06-07 17:31:00,
2013-06-07 10:36:00,61.7,46.0,30.08,WSW,247,2.6,5.6,57,0.00,,,0.00,Rainwise IP-100,2013-06-07 17:36:00,
2013-06-07 10:41:00,61.7,46.0,30.08,WSW,247,0.0,4.7,57,0.00,,,0.00,Rainwise IP-100,2013-06-07 17:41:00,
2013-06-07 10:46:00,61.6,46.0,30.08,SSW,202,3.3,3.7,57,0.00,,,0.00,Rainwise IP-100,2013-06-07 17:46:00,
2013-06-07 10:51:00,61.7,46.0,30.08,SW,225,0.0,4.7,57,0.00,,,0.00,Rainwise IP-100,2013-06-07 17:51:00,
2013-06-07 10:56:00,61.8,47.0,30.08,SSW,202,0.0,2.8,58,0.00,,,0.00,Rainwise IP-100,2013-06-07 17:56:00,
2013-06-07 11:01:00,62.0,47.0,30.08,SSW,202,0.0,3.0,57,0.00,,,0.00,Rainwise IP-100,2013-06-07 18:01:00,
2013-06-07 11:06:00,62.2,46.0,30.08,West,270,0.0,3.3,56,0.00,,,0.00,Rainwise IP-100,2013-06-07 18:06:00,
2013-06-07 11:11:00,62.4,47.0,30.08,SW,225,1.6,3.0,57,0.00,,,0.00,Rainwise IP-100,2013-06-07 18:11:00,
2013-06-07 11:16:00,62.4,47.0,30.08,SSW,202,2.1,4.0,57,0.00,,,0.00,Rainwise IP-100,2013-06-07 18:16:00,
2013-06-07 11:21:00,62.5,47.0,30.08,South,180,0.0,3.7,57,0.00,,,0.00,Rainwise IP-100,2013-06-07 18:21:00,
2013-06-07 11:26:00,62.6,47.0,30.09,SW,225,0.0,3.0,57,0.00,,,0.00,Rainwise IP-100,2013-06-07 18:26:00,
2013-06-07 11:31:00,62.8,47.5,30.08,SSW,202,0.0,2.1,57,0.00,,,0.00,Rainwise IP-100,2013-06-07 18:31:00,
2013-06-07 11:36:00,62.8,47.0,30.08,WSW,247,2.1,3.3,55,0.00,,,0.00,Rainwise IP-100,2013-06-07 18:36:00,
2013-06-07 11:41:00,62.7,44.0,30.08,SSW,202,1.2,3.0,51,0.00,,,0.00,Rainwise IP-100,2013-06-07 18:41:00,
2013-06-07 11:46:00,62.8,44.0,30.08,SSW,202,1.6,4.2,50,0.00,,,0.00,Rainwise IP-100,2013-06-07 18:46:00,
2013-06-07 11:51:00,63.0,44.0,30.08,West,270,0.0,4.4,50,0.00,,,0.00,Rainwise IP-100,2013-06-07 18:51:00,
2013-06-07 11:56:00,63.3,45.0,30.08,SW,225,0.0,4.4,51,0.00,,,0.00,Rainwise IP-100,2013-06-07 18:56:00,
2013-06-07 12:01:00,63.5,45.0,30.08,South,180,2.6,4.2,51,0.00,,,0.00,Rainwise IP-100,2013-06-07 19:01:00,
2013-06-07 12:06:00,63.6,46.0,30.08,SW,225,1.4,4.7,52,0.00,,,0.00,Rainwise IP-100,2013-06-07 19:06:00,
2013-06-07 12:11:00,63.8,47.0,30.08,SSE,157,1.2,4.4,53,0.00,,,0.00,Rainwise IP-100,2013-06-07 19:11:00,
2013-06-07 12:16:00,63.8,47.0,30.08,SSW,202,0.0,3.7,54,0.00,,,0.00,Rainwise IP-100,2013-06-07 19:16:00,
2013-06-07 12:21:00,63.7,47.0,30.08,WSW,247,0.0,3.0,55,0.00,,,0.00,Rainwise IP-100,2013-06-07 19:21:00,
2013-06-07 12:26:00,63.9,47.5,30.08,SW,225,1.4,3.0,55,0.00,,,0.00,Rainwise IP-100,2013-06-07 19:26:00,
2013-06-07 12:31:00,64.0,48.0,30.08,SSW,202,1.9,4.2,56,0.00,,,0.00,Rainwise IP-100,2013-06-07 19:31:00,
2013-06-07 12:36:00,63.8,48.0,30.08,SW,225,1.2,2.6,56,0.00,,,0.00,Rainwise IP-100,2013-06-07 19:36:00,
2013-06-07 12:41:00,63.8,48.0,30.08,South,180,0.0,2.6,57,0.00,,,0.00,Rainwise IP-100,2013-06-07 19:41:00,
2013-06-07 12:46:00,63.8,49.0,30.08,WSW,247,2.3,2.3,58,0.00,,,0.00,Rainwise IP-100,2013-06-07 19:46:00,
2013-06-07 12:51:00,63.9,49.0,30.08,SSW,202,0.0,3.3,58,0.00,,,0.00,Rainwise IP-100,2013-06-07 19:51:00,
2013-06-07 12:56:00,64.0,49.0,30.08,SW,225,0.0,2.3,59,0.00,,,0.00,Rainwise IP-100,2013-06-07 19:56:00,
2013-06-07 13:01:00,64.2,49.0,30.08,WSW,247,2.1,2.8,59,0.00,,,0.00,Rainwise IP-100,2013-06-07 20:01:00,
2013-06-07 13:06:00,64.3,50.0,30.08,SW,225,0.0,3.5,59,0.00,,,0.00,Rainwise IP-100,2013-06-07 20:06:00,
2013-06-07 13:11:00,64.3,50.0,30.08,SSW,202,1.2,2.8,59,0.00,,,0.00,Rainwise IP-100,2013-06-07 20:11:00,
2013-06-07 13:16:00,64.4,50.0,30.08,SW,225,0.0,2.1,59,0.00,,,0.00,Rainwise IP-100,2013-06-07 20:16:00,
2013-06-07 13:21:00,64.4,50.0,30.08,SW,225,0.0,2.6,59,0.00,,,0.00,Rainwise IP-100,2013-06-07 20:21:00,
2013-06-07 13:26:00,64.4,50.0,30.08,SSW,202,1.4,3.0,59,0.00,,,0.00,Rainwise IP-100,2013-06-07 20:26:00,
2013-06-07 13:31:00,64.4,50.0,30.08,SSW,202,1.4,2.8,59,0.00,,,0.00,Rainwise IP-100,2013-06-07 20:31:00,
2013-06-07 13:36:00,64.4,50.5,30.08,SSW,202,0.0,2.8,60,0.00,,,0.00,Rainwise IP-100,2013-06-07 20:36:00,
2013-06-07 13:41:00,64.5,50.5,30.08,SSW,202,0.0,2.8,60,0.00,,,0.00,Rainwise IP-100,2013-06-07 20:41:00,
2013-06-07 13:46:00,64.6,50.5,30.08,SW,225,1.4,2.1,60,0.00,,,0.00,Rainwise IP-100,2013-06-07 20:46:00,
2013-06-07 13:51:00,64.6,50.5,30.08,SSW,202,2.1,3.0,60,0.00,,,0.00,Rainwise IP-100,2013-06-07 20:51:00,
2013-06-07 13:56:00,64.6,50.5,30.08,SSW,202,1.4,2.1,60,0.00,,,0.00,Rainwise IP-100,2013-06-07 20:56:00,
2013-06-07 14:01:00,64.8,51.0,30.08,South,180,0.0,2.1,61,0.00,,,0.00,Rainwise IP-100,2013-06-07 21:01:00,
2013-06-07 14:06:00,64.9,51.0,30.08,SSW,202,0.0,1.9,61,0.00,,,0.00,Rainwise IP-100,2013-06-07 21:06:00,
2013-06-07 14:11:00,64.9,51.0,30.08,SSW,202,0.0,1.6,61,0.00,,,0.00,Rainwise IP-100,2013-06-07 21:11:00,
2013-06-07 14:16:00,65.0,51.0,30.09,SW,225,1.2,1.4,62,0.00,,,0.00,Rainwise IP-100,2013-06-07 21:16:00,
2013-06-07 14:21:00,65.1,52.0,30.09,WSW,247,1.2,2.1,63,0.00,,,0.00,Rainwise IP-100,2013-06-07 21:21:00,
2013-06-07 14:26:00,65.2,52.0,30.09,WSW,247,0.0,1.9,63,0.00,,,0.00,Rainwise IP-100,2013-06-07 21:26:00,
2013-06-07 14:31:00,65.2,53.0,30.09,WSW,247,0.0,1.2,64,0.00,,,0.00,Rainwise IP-100,2013-06-07 21:31:00,
2013-06-07 14:36:00,65.2,53.0,30.08,SW,225,0.0,0.0,64,0.00,,,0.00,Rainwise IP-100,2013-06-07 21:36:00,
2013-06-07 14:41:00,65.3,53.0,30.08,SW,225,0.0,1.6,64,0.00,,,0.00,Rainwise IP-100,2013-06-07 21:41:00,
2013-06-07 14:46:00,65.3,53.0,30.08,South,180,1.2,1.6,64,0.00,,,0.00,Rainwise IP-100,2013-06-07 21:46:00,
2013-06-07 14:51:00,65.4,53.5,30.08,South,180,0.0,2.1,65,0.00,,,0.00,Rainwise IP-100,2013-06-07 21:51:00,
2013-06-07 14:56:00,65.4,53.5,30.08,SW,225,0.0,1.9,65,0.00,,,0.00,Rainwise IP-100,2013-06-07 21:56:00,
2013-06-07 15:01:00,65.5,53.0,30.09,SW,225,0.0,1.2,64,0.00,,,0.00,Rainwise IP-100,2013-06-07 22:01:00,
2013-06-07 15:06:00,65.6,53.0,30.09,South,180,1.2,1.2,64,0.00,,,0.00,Rainwise IP-100,2013-06-07 22:06:00,
2013-06-07 15:11:00,65.7,53.0,30.09,South,180,0.0,1.9,64,0.00,,,0.00,Rainwise IP-100,2013-06-07 22:11:00,
2013-06-07 15:16:00,65.7,53.0,30.09,South,180,0.0,0.0,64,0.00,,,0.00,Rainwise IP-100,2013-06-07 22:16:00,
2013-06-07 15:21:00,65.8,54.0,30.09,SW,225,0.0,1.9,65,0.00,,,0.00,Rainwise IP-100,2013-06-07 22:21:00,
2013-06-07 15:26:00,65.7,53.5,30.09,SW,225,0.0,0.0,65,0.00,,,0.00,Rainwise IP-100,2013-06-07 22:26:00,
2013-06-07 15:31:00,65.8,54.0,30.09,SSW,202,0.0,1.4,65,0.00,,,0.00,Rainwise IP-100,2013-06-07 22:31:00,
2013-06-07 15:36:00,65.8,54.0,30.10,SW,225,0.0,2.8,65,0.00,,,0.00,Rainwise IP-100,2013-06-07 22:36:00,
2013-06-07 15:41:00,65.7,54.0,30.10,SW,225,0.0,2.1,66,0.00,,,0.00,Rainwise IP-100,2013-06-07 22:41:00,
2013-06-07 15:46:00,65.8,54.0,30.09,South,180,1.2,1.9,66,0.00,,,0.00,Rainwise IP-100,2013-06-07 22:46:00,
2013-06-07 15:51:00,65.8,54.5,30.09,SSW,202,1.4,2.6,67,0.00,,,0.00,Rainwise IP-100,2013-06-07 22:51:00,
2013-06-07 15:56:00,65.8,54.5,30.09,SW,225,0.0,3.3,67,0.00,,,0.00,Rainwise IP-100,2013-06-07 22:56:00,
2013-06-07 16:01:00,66.0,54.5,30.09,South,180,1.6,3.0,67,0.00,,,0.00,Rainwise IP-100,2013-06-07 23:01:00,
2013-06-07 16:06:00,66.0,54.5,30.09,WSW,247,1.9,3.3,67,0.00,,,0.00,Rainwise IP-100,2013-06-07 23:06:00,
2013-06-07 16:11:00,66.1,54.5,30.10,WSW,247,1.4,4.0,67,0.00,,,0.00,Rainwise IP-100,2013-06-07 23:11:00,
2013-06-07 16:16:00,66.2,55.0,30.09,WSW,247,1.9,1.9,67,0.00,,,0.00,Rainwise IP-100,2013-06-07 23:16:00,
2013-06-07 16:21:00,66.4,55.0,30.10,WSW,247,2.1,2.3,67,0.00,,,0.00,Rainwise IP-100,2013-06-07 23:21:00,
2013-06-07 16:26:00,66.5,55.0,30.09,WSW,247,0.0,3.0,67,0.00,,,0.00,Rainwise IP-100,2013-06-07 23:26:00,
2013-06-07 16:31:00,66.6,55.0,30.09,SSW,202,0.0,2.8,66,0.00,,,0.00,Rainwise IP-100,2013-06-07 23:31:00,
2013-06-07 16:36:00,66.7,55.0,30.09,WSW,247,3.3,3.5,67,0.00,,,0.00,Rainwise IP-100,2013-06-07 23:36:00,
2013-06-07 16:41:00,66.7,55.0,30.09,SSW,202,1.2,3.5,66,0.00,,,0.00,Rainwise IP-100,2013-06-07 23:41:00,
2013-06-07 16:46:00,66.6,55.0,30.09,WSW,247,1.2,3.7,66,0.00,,,0.00,Rainwise IP-100,2013-06-07 23:46:00,
2013-06-07 16:51:00,66.5,55.0,30.10,SSW,202,2.1,2.8,66,0.00,,,0.00,Rainwise IP-100,2013-06-07 23:51:00,
2013-06-07 16:56:00,66.5,55.0,30.10,South,180,0.0,2.1,67,0.00,,,0.00,Rainwise IP-100,2013-06-07 23:56:00,
2013-06-07 17:01:00,66.3,55.0,30.10,South,180,0.0,1.6,67,0.00,,,0.00,Rainwise IP-100,2013-06-08 00:01:00,
2013-06-07 17:06:00,66.0,54.0,30.10,South,180,0.0,1.2,66,0.00,,,0.00,Rainwise IP-100,2013-06-08 00:06:00,
2013-06-07 17:11:00,66.0,54.0,30.10,South,180,0.0,0.0,65,0.00,,,0.00,Rainwise IP-100,2013-06-08 00:11:00,
2013-06-07 17:16:00,66.1,54.0,30.10,South,180,0.0,0.0,65,0.00,,,0.00,Rainwise IP-100,2013-06-08 00:16:00,
2013-06-07 17:21:00,66.1,54.0,30.10,ESE,112,0.0,0.0,65,0.00,,,0.00,Rainwise IP-100,2013-06-08 00:21:00,
2013-06-07 17:26:00,66.2,54.0,30.10,ESE,112,0.0,0.0,65,0.00,,,0.00,Rainwise IP-100,2013-06-08 00:26:00,
2013-06-07 17:31:00,66.2,54.0,30.10,ESE,112,0.0,0.0,65,0.00,,,0.00,Rainwise IP-100,2013-06-08 00:31:00,
2013-06-07 17:36:00,66.2,54.0,30.11,ESE,112,0.0,0.0,65,0.00,,,0.00,Rainwise IP-100,2013-06-08 00:36:00,
2013-06-07 17:41:00,66.2,54.0,30.10,ESE,112,0.0,0.0,65,0.00,,,0.00,Rainwise IP-100,2013-06-08 00:41:00,
2013-06-07 17:46:00,66.1,54.0,30.10,ESE,112,0.0,0.0,66,0.00,,,0.00,Rainwise IP-100,2013-06-08 00:46:00,
2013-06-07 17:51:00,65.9,53.5,30.10,ESE,112,0.0,0.0,64,0.00,,,0.00,Rainwise IP-100,2013-06-08 00:51:00,
2013-06-07 17:56:00,65.8,52.0,30.10,NE,45,0.0,2.1,61,0.00,,,0.00,Rainwise IP-100,2013-06-08 00:56:00,
2013-06-07 18:01:00,65.7,51.0,30.10,NE,45,0.0,2.1,60,0.00,,,0.00,Rainwise IP-100,2013-06-08 01:01:00,
2013-06-07 18:06:00,65.5,51.0,30.10,NE,45,0.0,1.2,60,0.00,,,0.00,Rainwise IP-100,2013-06-08 01:06:00,
2013-06-07 18:11:00,65.4,51.0,30.10,NE,45,0.0,1.4,60,0.00,,,0.00,Rainwise IP-100,2013-06-08 01:11:00,
2013-06-07 18:16:00,65.4,51.0,30.10,North,0,0.0,0.0,60,0.00,,,0.00,Rainwise IP-100,2013-06-08 01:16:00,
2013-06-07 18:21:00,65.4,51.0,30.09,NNE,22,0.0,0.0,60,0.00,,,0.00,Rainwise IP-100,2013-06-08 01:21:00,
2013-06-07 18:26:00,65.3,50.5,30.10,WNW,292,0.0,2.1,59,0.00,,,0.00,Rainwise IP-100,2013-06-08 01:26:00,
2013-06-07 18:31:00,65.3,50.5,30.10,NNE,22,1.2,1.6,59,0.00,,,0.00,Rainwise IP-100,2013-06-08 01:31:00,
2013-06-07 18:36:00,65.3,50.5,30.10,NNE,22,0.0,2.3,59,0.00,,,0.00,Rainwise IP-100,2013-06-08 01:36:00,
2013-06-07 18:41:00,65.3,50.5,30.10,NNE,22,0.0,1.2,59,0.00,,,0.00,Rainwise IP-100,2013-06-08 01:41:00,
2013-06-07 18:46:00,65.3,51.0,30.10,NNE,22,0.0,2.1,60,0.00,,,0.00,Rainwise IP-100,2013-06-08 01:46:00,
2013-06-07 18:51:00,65.3,50.5,30.10,NNE,22,0.0,1.6,59,0.00,,,0.00,Rainwise IP-100,2013-06-08 01:51:00,
2013-06-07 18:56:00,65.3,51.0,30.11,NNE,22,0.0,1.4,60,0.00,,,0.00,Rainwise IP-100,2013-06-08 01:56:00,
2013-06-07 19:01:00,65.3,51.0,30.11,NNE,22,0.0,1.2,60,0.00,,,0.00,Rainwise IP-100,2013-06-08 02:01:00,
2013-06-07 19:06:00,65.3,51.0,30.11,NNE,22,0.0,1.4,60,0.00,,,0.00,Rainwise IP-100,2013-06-08 02:06:00,
2013-06-07 19:11:00,65.3,51.0,30.11,NNE,22,0.0,1.2,60,0.00,,,0.00,Rainwise IP-100,2013-06-08 02:11:00,
2013-06-07 19:16:00,65.2,50.5,30.10,NNW,337,0.0,2.1,60,0.00,,,0.00,Rainwise IP-100,2013-06-08 02:16:00,
2013-06-07 19:21:00,65.2,50.5,30.10,NNE,22,0.0,2.3,60,0.00,,,0.00,Rainwise IP-100,2013-06-08 02:21:00,
2013-06-07 19:26:00,65.1,50.5,30.10,WNW,292,0.0,2.3,60,0.00,,,0.00,Rainwise IP-100,2013-06-08 02:26:00,
2013-06-07 19:31:00,65.0,50.5,30.10,NNE,22,0.0,1.6,60,0.00,,,0.00,Rainwise IP-100,2013-06-08 02:31:00,
2013-06-07 19:36:00,64.8,50.5,30.10,NNE,22,0.0,1.2,60,0.00,,,0.00,Rainwise IP-100,2013-06-08 02:36:00,
2013-06-07 19:41:00,64.6,50.5,30.10,NNE,22,0.0,0.0,60,0.00,,,0.00,Rainwise IP-100,2013-06-08 02:41:00,
2013-06-07 19:46:00,64.4,50.5,30.10,NNE,22,0.0,1.4,61,0.00,,,0.00,Rainwise IP-100,2013-06-08 02:46:00,
2013-06-07 19:51:00,64.4,50.5,30.10,NNE,22,0.0,1.2,61,0.00,,,0.00,Rainwise IP-100,2013-06-08 02:51:00,
2013-06-07 19:56:00,64.2,50.5,30.10,NNE,22,0.0,1.9,61,0.00,,,0.00,Rainwise IP-100,2013-06-08 02:56:00,
2013-06-07 20:01:00,64.1,50.5,30.10,NW,315,0.0,1.6,61,0.00,,,0.00,Rainwise IP-100,2013-06-08 03:01:00,
2013-06-07 20:06:00,64.0,50.5,30.10,NW,315,0.0,1.4,62,0.00,,,0.00,Rainwise IP-100,2013-06-08 03:06:00,
2013-06-07 20:11:00,63.9,50.5,30.10,NNW,337,0.0,1.6,62,0.00,,,0.00,Rainwise IP-100,2013-06-08 03:11:00,
2013-06-07 20:16:00,63.7,50.5,30.10,North,0,0.0,0.0,62,0.00,,,0.00,Rainwise IP-100,2013-06-08 03:16:00,
2013-06-07 20:21:00,63.7,50.5,30.10,NNE,22,0.0,1.6,62,0.00,,,0.00,Rainwise IP-100,2013-06-08 03:21:00,
2013-06-07 20:26:00,63.6,50.5,30.10,NNE,22,0.0,0.0,63,0.00,,,0.00,Rainwise IP-100,2013-06-08 03:26:00,
2013-06-07 20:31:00,63.5,50.5,30.10,NNE,22,0.0,0.0,63,0.00,,,0.00,Rainwise IP-100,2013-06-08 03:31:00,
2013-06-07 20:36:00,63.5,50.5,30.10,NNE,22,0.0,0.0,63,0.00,,,0.00,Rainwise IP-100,2013-06-08 03:36:00,
2013-06-07 20:41:00,63.4,51.0,30.10,NNE,22,0.0,0.0,64,0.00,,,0.00,Rainwise IP-100,2013-06-08 03:41:00,
2013-06-07 20:46:00,63.3,51.0,30.10,NNE,22,0.0,1.4,64,0.00,,,0.00,Rainwise IP-100,2013-06-08 03:46:00,
2013-06-07 20:51:00,63.1,50.5,30.10,NNE,22,0.0,0.0,64,0.00,,,0.00,Rainwise IP-100,2013-06-08 03:51:00,
2013-06-07 20:56:00,63.0,51.0,30.10,NNE,22,0.0,0.0,65,0.00,,,0.00,Rainwise IP-100,2013-06-08 03:56:00,
2013-06-07 21:01:00,62.9,51.0,30.10,NNE,22,0.0,1.6,65,0.00,,,0.00,Rainwise IP-100,2013-06-08 04:01:00,
2013-06-07 21:02:00,62.9,51.0,30.10,NNE,22,0.0,1.6,65,0.00,,,0.00,Rainwise IP-100,2013-06-08 04:02:00,
2013-06-07 21:07:00,62.8,51.0,30.10,NNE,22,0.0,0.0,65,0.00,,,0.00,Rainwise IP-100,2013-06-08 04:07:00,
2013-06-07 21:11:00,62.7,50.5,30.10,NNE,22,0.0,0.0,65,0.00,,,0.00,Rainwise IP-100,2013-06-08 04:11:00,
2013-06-07 21:16:00,62.6,50.5,30.11,NNE,22,0.0,0.0,65,0.00,,,0.00,Rainwise IP-100,2013-06-08 04:16:00,
2013-06-07 21:21:00,62.6,51.0,30.11,NNE,22,0.0,0.0,66,0.00,,,0.00,Rainwise IP-100,2013-06-08 04:21:00,
2013-06-07 21:26:00,62.5,51.0,30.11,NNE,22,0.0,0.0,66,0.00,,,0.00,Rainwise IP-100,2013-06-08 04:26:00,
2013-06-07 21:31:00,62.2,51.0,30.12,NNE,22,0.0,0.0,68,0.00,,,0.00,Rainwise IP-100,2013-06-08 04:31:00,
2013-06-07 21:36:00,61.7,51.0,30.12,NNE,22,0.0,0.0,69,0.00,,,0.00,Rainwise IP-100,2013-06-08 04:36:00,
2013-06-07 21:41:00,61.5,52.0,30.12,NNE,22,0.0,0.0,70,0.00,,,0.00,Rainwise IP-100,2013-06-08 04:41:00,
2013-06-07 21:46:00,61.1,51.0,30.13,NNE,22,0.0,0.0,71,0.00,,,0.00,Rainwise IP-100,2013-06-08 04:46:00,
2013-06-07 21:51:00,60.8,52.0,30.13,NNE,22,0.0,0.0,72,0.00,,,0.00,Rainwise IP-100,2013-06-08 04:51:00,
2013-06-07 21:56:00,60.5,51.0,30.13,NNE,22,0.0,0.0,72,0.00,,,0.00,Rainwise IP-100,2013-06-08 04:56:00,
2013-06-07 22:01:00,60.3,52.0,30.13,NNE,22,0.0,0.0,74,0.00,,,0.00,Rainwise IP-100,2013-06-08 05:01:00,
2013-06-07 22:06:00,60.2,51.0,30.13,NNE,22,0.0,0.0,74,0.00,,,0.00,Rainwise IP-100,2013-06-08 05:06:00,
2013-06-07 22:11:00,60.1,51.0,30.13,NNE,22,0.0,0.0,74,0.00,,,0.00,Rainwise IP-100,2013-06-08 05:11:00,
2013-06-07 22:16:00,59.9,52.0,30.13,NNE,22,0.0,1.2,75,0.00,,,0.00,Rainwise IP-100,2013-06-08 05:16:00,
2013-06-07 22:21:00,59.7,52.0,30.13,NE,45,0.0,3.5,76,0.00,,,0.00,Rainwise IP-100,2013-06-08 05:21:00,
2013-06-07 22:26:00,59.5,52.0,30.13,NE,45,0.0,0.0,76,0.00,,,0.00,Rainwise IP-100,2013-06-08 05:26:00,
2013-06-07 22:31:00,59.4,52.0,30.13,NE,45,0.0,0.0,76,0.00,,,0.00,Rainwise IP-100,2013-06-08 05:31:00,
2013-06-07 22:36:00,59.3,52.0,30.13,NE,45,0.0,0.0,76,0.00,,,0.00,Rainwise IP-100,2013-06-08 05:36:00,
2013-06-07 22:38:00,59.3,52.0,30.13,NE,45,0.0,0.0,76,0.00,,,0.00,Rainwise IP-100,2013-06-08 05:38:00,
2013-06-07 22:43:00,59.2,51.0,30.13,NE,45,0.0,0.0,76,0.00,,,0.00,Rainwise IP-100,2013-06-08 05:43:00,
2013-06-07 22:48:00,59.2,52.0,30.14,NNE,22,0.0,0.0,77,0.00,,,0.00,Rainwise IP-100,2013-06-08 05:48:00,
2013-06-07 22:53:00,59.1,52.0,30.13,NNE,22,0.0,0.0,77,0.00,,,0.00,Rainwise IP-100,2013-06-08 05:53:00,
2013-06-07 22:58:00,59.1,52.0,30.14,NNE,22,0.0,0.0,77,0.00,,,0.00,Rainwise IP-100,2013-06-08 05:58:00,
2013-06-07 23:03:00,59.0,51.0,30.14,NNE,22,0.0,0.0,76,0.00,,,0.00,Rainwise IP-100,2013-06-08 06:03:00,
2013-06-07 23:08:00,58.9,51.0,30.14,NNE,22,0.0,1.2,76,0.00,,,0.00,Rainwise IP-100,2013-06-08 06:08:00,
2013-06-07 23:13:00,58.8,51.0,30.14,NNE,22,0.0,0.0,76,0.00,,,0.00,Rainwise IP-100,2013-06-08 06:13:00,
2013-06-07 23:18:00,58.6,51.0,30.15,NNE,22,0.0,1.9,75,0.00,,,0.00,Rainwise IP-100,2013-06-08 06:18:00,
2013-06-07 23:23:00,58.4,50.5,30.15,NNE,22,0.0,0.0,75,0.00,,,0.00,Rainwise IP-100,2013-06-08 06:23:00,
2013-06-07 23:28:00,58.2,50.5,30.15,NNW,337,0.0,1.6,75,0.00,,,0.00,Rainwise IP-100,2013-06-08 06:28:00,
2013-06-07 23:33:00,57.9,50.5,30.15,North,0,0.0,0.0,75,0.00,,,0.00,Rainwise IP-100,2013-06-08 06:33:00,
2013-06-07 23:38:00,57.7,50.0,30.15,North,0,1.2,0.0,74,0.00,,,0.00,Rainwise IP-100,2013-06-08 06:38:00,
2013-06-07 23:43:00,57.5,50.0,30.15,NNE,22,0.0,1.9,74,0.00,,,0.00,Rainwise IP-100,2013-06-08 06:43:00,
2013-06-07 23:48:00,57.4,50.0,30.15,NNE,22,0.0,0.0,75,0.00,,,0.00,Rainwise IP-100,2013-06-08 06:48:00,
2013-06-07 23:53:00,57.3,50.0,30.15,NNE,22,0.0,1.2,75,0.00,,,0.00,Rainwise IP-100,2013-06-08 06:53:00,
2013-06-07 23:58:00,57.2,49.0,30.15,NNE,22,0.0,1.2,74,0.00,,,0.00,Rainwise IP-100,2013-06-08 06:58:00,